Theta_e
332 332 346 346 346 340 336 344 336 338 336 329 328 324 327 332 336 338 339 337 337 336 335 336 336 336 334 333 331 332 335 339 342 343 343 342 343 343 344 344 343 343 343 342 341 340 340 340 338 335 331 328 329 332 333 332 332 334 335 335 334 334 335 336 338 337 338 339 339 338 338 337 330 324 320 318 318 319 319 322 319 319 326 318 312
335 336 346 345 346 339 337 343 337 338 334 330 330 325 325 329 335 337 338 337 337 336 336 338 337 337 334 332 329 332 337 341 342 343 343 343 344 343 344 343 343 343 343 340 338 337 336 337 336 335 334 330 329 333 334 332 331 332 333 333 333 332 332 332 332 332 332 332 332 330 329 327 324 323 322 319 318 318 317 319 314 323 329 313 312
334 340 346 345 347 339 338 342 337 339 334 331 331 326 324 326 334 336 338 337 337 336 336 337 336 337 334 331 328 331 339 342 343 343 343 344 343 343 343 343 342 341 339 336 335 335 334 333 332 331 330 326 325 331 335 334 333 332 333 333 334 333 333 333 331 331 330 330 328 326 324 322 321 325 327 324 322 320 318 317 311 321 323 309 313
335 343 345 345 346 339 339 340 336 339 333 331 332 327 325 325 334 337 339 337 337 337 336 338 338 338 335 331 329 332 341 343 343 344 344 344 343 343 342 340 339 336 334 334 334 335 336 336 334 333 331 326 322 324 331 336 336 334 335 335 336 336 336 336 335 334 333 333 331 332 332 331 329 327 330 328 324 321 318 317 312 315 316 313 317
337 344 345 346 345 339 338 338 336 339 333 331 332 328 324 327 336 339 342 339 338 338 338 340 339 339 336 333 330 333 341 343 342 344 343 343 343 341 339 338 337 334 334 334 333 333 332 333 334 335 333 329 324 321 324 331 336 336 336 336 337 336 336 335 335 334 334 333 332 335 336 336 334 328 328 330 327 323 318 315 313 312 313 313 315
340 344 345 346 345 340 337 336 336 338 332 331 333 327 324 331 340 342 342 340 340 340 340 340 339 339 337 334 332 331 338 343 342 343 343 342 341 338 338 337 336 333 332 331 328 326 325 328 331 333 331 328 325 322 320 322 329 334 336 335 336 335 335 334 334 333 333 333 333 336 336 337 336 330 326 330 330 328 324 319 316 314 314 312 314
341 344 346 346 345 341 337 335 335 338 332 331 332 326 328 337 343 341 340 340 341 340 340 340 339 339 337 335 333 331 334 340 343 342 342 342 341 339 337 335 332 330 329 327 326 324 324 328 332 331 328 326 324 323 321 318 320 327 333 334 333 333 333 333 333 333 332 333 336 337 337 337 336 332 325 328 329 329 328 322 319 316 316 314 315
342 345 346 345 345 341 338 335 334 337 332 331 331 327 335 342 342 340 341 341 341 341 340 340 339 339 339 337 335 331 331 337 341 342 342 342 342 342 339 335 331 328 327 326 325 324 324 328 332 331 328 327 325 324 322 318 316 321 328 331 331 332 332 333 333 333 332 333 336 335 336 337 335 333 327 326 326 328 329 322 322 318 317 316 313
343 345 345 345 345 341 339 336 335 336 332 332 331 332 340 343 341 340 341 341 341 341 340 340 340 339 340 338 336 333 330 333 338 341 342 342 342 342 341 338 336 331 327 326 325 325 325 326 329 329 328 326 325 324 322 320 319 321 326 329 331 332 332 333 333 332 332 331 333 333 334 336 336 333 328 328 326 327 328 324 328 324 319 319 313
343 344 344 345 344 341 339 337 335 336 334 332 331 336 341 342 342 341 341 341 340 340 340 340 340 340 339 338 337 335 330 329 334 339 341 341 342 341 341 340 339 336 331 327 325 325 326 326 327 328 328 326 325 325 324 324 324 326 328 330 332 331 332 333 333 332 331 330 331 333 333 333 335 332 328 329 329 327 327 324 327 325 320 319 317
343 344 343 344 344 341 338 336 334 337 336 333 334 339 342 342 341 341 340 340 340 340 340 340 339 339 337 336 336 335 333 329 328 332 336 339 340 340 340 339 339 338 335 330 325 324 327 328 328 329 328 326 325 325 326 326 327 329 329 330 331 330 331 333 332 332 331 330 331 332 332 332 333 331 327 329 331 328 326 324 323 323 321 320 320
342 343 343 344 343 340 337 335 335 338 338 336 337 341 342 341 341 340 340 340 340 339 339 339 338 337 336 335 334 335 334 333 329 326 327 332 337 338 339 338 337 337 336 332 327 324 326 328 329 329 329 329 327 327 326 327 328 328 329 329 330 328 330 332 333 331 330 330 332 332 333 333 334 331 328 330 332 331 327 326 325 325 324 323 322
341 342 343 344 343 340 336 335 338 339 338 338 339 342 341 341 341 340 340 339 339 339 337 336 334 333 334 334 334 334 334 334 332 329 326 326 330 334 338 339 336 336 335 333 328 323 325 327 329 329 329 329 328 328 328 327 327 328 328 328 328 328 328 330 331 332 329 328 329 332 333 334 335 333 330 330 332 332 329 327 327 327 325 323 323
340 341 343 344 343 340 336 337 339 339 338 339 341 342 342 341 342 340 340 338 337 337 332 328 324 326 332 333 332 333 334 333 333 332 331 328 326 328 334 337 334 332 333 332 329 324 324 325 325 327 327 327 326 326 327 326 326 326 327 327 327 326 326 327 328 330 329 327 326 330 333 333 334 334 332 331 331 332 331 329 328 327 326 324 323
340 341 343 344 343 341 338 337 339 340 337 338 342 342 341 342 342 340 338 336 335 332 324 318 316 320 328 331 331 332 333 333 333 333 334 332 328 324 327 329 326 326 326 326 327 325 324 324 323 324 324 324 324 323 324 323 323 323 324 324 324 324 324 325 326 328 328 329 329 330 332 333 332 334 334 332 331 331 332 330 328 327 327 325 323
340 342 343 343 343 341 339 339 339 341 338 339 342 342 341 342 342 339 336 334 330 324 317 315 314 316 322 325 326 326 327 329 329 330 331 330 327 323 322 321 320 321 323 324 326 325 324 324 323 323 324 324 324 323 323 322 321 322 322 323 322 323 322 322 326 329 330 331 331 331 333 333 331 333 334 333 332 331 332 332 330 328 327 326 324
341 342 343 343 343 342 341 340 340 340 339 339 341 342 342 342 340 337 335 332 324 318 315 315 314 314 316 318 318 316 316 316 317 319 321 321 320 320 320 319 318 320 322 324 325 325 324 324 325 325 324 323 323 321 320 321 321 322 324 325 324 322 321 322 327 331 332 332 331 332 333 333 332 332 333 334 334 332 332 335 336 334 331 328 326
341 342 342 343 342 342 341 341 341 340 340 340 341 342 342 341 338 336 333 327 320 316 316 316 316 319 320 319 319 317 316 315 313 312 312 312 313 314 315 315 315 316 318 320 322 323 323 324 324 323 323 322 322 322 323 324 325 325 327 330 330 327 326 327 330 333 333 333 333 333 333 333 332 333 333 333 333 333 332 334 338 338 335 330 328
341 341 342 342 342 342 342 341 341 341 340 341 342 342 342 340 337 335 330 323 318 317 319 320 322 324 324 325 326 325 324 323 321 318 316 315 315 314 313 313 312 313 313 314 314 316 318 322 325 327 329 329 329 330 331 332 332 331 332 333 335 334 333 332 333 334 334 335 334 334 334 333 333 333 334 333 333 333 333 333 335 337 336 334 332
340 341 342 342 341 341 341 341 341 340 340 341 342 342 341 339 336 333 326 320 319 321 323 325 327 328 329 330 331 332 332 330 329 328 327 327 328 328 327 326 325 324 322 320 319 321 325 330 334 336 337 336 336 336 336 336 336 336 335 336 336 336 336 335 335 335 335 336 335 336 335 334 334 333 334 334 333 334 333 333 334 335 336 336 336
340 341 341 341 341 341 341 341 341 340 341 342 342 343 341 339 337 331 324 321 323 325 328 330 330 330 332 332 333 335 335 335 336 336 335 335 336 337 337 337 336 336 335 333 332 334 335 337 338 338 338 338 338 338 338 337 337 337 337 337 336 336 336 336 336 336 336 336 336 337 336 336 335 335 335 335 335 335 334 334 334 334 335 336 337
339 340 341 340 340 341 341 342 341 340 341 342 342 343 340 339 338 331 325 325 327 329 332 334 335 334 333 334 336 337 337 338 340 340 339 339 338 338 339 339 339 339 338 338 337 338 338 338 338 338 339 338 338 338 338 337 337 337 336 336 336 336 337 336 336 337 337 337 337 337 337 337 337 336 336 336 336 335 335 335 335 335 336 337 337
338 339 340 340 340 341 341 341 341 339 341 342 342 342 341 340 339 333 329 331 331 331 335 336 336 335 335 336 338 338 339 340 341 341 341 340 339 339 340 340 340 339 339 339 338 338 338 338 339 338 338 338 338 338 337 338 337 336 336 337 337 337 337 337 337 337 338 337 337 337 337 337 336 337 336 336 336 336 336 337 338 339 339 338 337
338 339 340 339 340 341 340 340 340 340 341 342 342 342 341 341 339 335 333 335 335 335 336 337 336 334 335 337 337 337 338 339 340 340 340 340 340 340 341 340 340 340 339 340 339 339 339 339 338 338 338 338 338 338 338 338 337 337 337 337 337 337 337 337 337 337 337 336 336 336 336 336 336 336 336 336 337 336 337 338 339 339 340 340 338
337 338 339 339 340 340 340 340 339 340 341 342 342 342 341 341 339 336 336 336 336 337 338 338 338 335 336 336 335 336 336 337 338 339 340 340 340 340 341 340 340 340 339 339 339 339 339 338 338 338 338 338 338 338 338 338 338 338 337 337 337 337 336 336 336 336 336 336 335 335 335 335 335 335 335 336 336 336 336 336 336 337 339 340 339
337 338 338 338 339 339 340 340 339 340 341 342 341 341 341 340 339 337 336 336 336 338 339 339 339 337 336 336 336 336 336 337 338 339 340 340 340 341 341 340 340 339 339 339 339 338 338 337 337 338 338 338 338 337 337 336 336 337 337 337 336 336 335 335 334 334 334 333 333 332 332 333 333 333 334 335 335 335 335 335 336 338 339 339 338
336 337 338 338 338 339 339 339 340 340 341 342 341 341 341 340 339 337 335 335 335 337 339 339 338 338 338 337 337 337 336 337 338 339 340 341 341 341 341 340 339 339 339 339 339 338 337 337 337 337 337 337 336 336 335 335 334 335 336 335 334 334 333 333 332 332 332 331 331 331 330 331 331 332 333 333 334 335 335 335 336 338 339 338 337
336 336 337 338 338 339 339 340 340 340 341 341 341 341 341 340 339 337 336 335 335 336 338 338 339 339 338 337 335 335 337 338 339 340 341 341 341 341 340 339 339 339 339 339 339 338 337 337 337 336 336 335 334 334 334 334 333 333 334 334 333 332 331 331 331 331 331 331 331 331 331 331 331 332 332 332 333 334 335 336 336 338 339 338 337
336 336 337 337 338 338 338 339 340 341 341 341 341 341 340 340 339 338 337 336 336 336 338 339 339 338 338 336 334 335 337 339 340 340 341 340 340 340 339 338 339 339 338 338 338 338 337 337 336 336 335 334 334 332 332 333 333 332 333 332 332 331 331 331 330 331 330 330 330 331 331 332 332 332 333 333 333 334 335 335 336 337 337 337 336
336 337 336 336 336 338 338 339 340 341 341 340 341 341 340 340 339 338 338 337 337 337 338 339 339 339 338 336 335 336 339 340 340 340 340 340 339 339 338 338 338 338 337 338 337 337 337 336 335 335 334 333 333 331 330 332 332 332 332 332 332 332 331 330 330 330 329 329 329 329 329 329 330 331 332 332 333 333 333 334 334 334 335 335 335
336 336 336 335 335 337 337 338 339 340 340 340 341 340 340 340 339 339 338 339 338 336 338 338 339 339 337 336 335 336 339 339 340 340 340 339 339 338 338 339 338 337 337 337 337 336 335 335 334 333 333 332 331 330 329 331 332 332 332 332 331 331 331 330 329 328 328 328 327 327 327 327 328 328 329 329 330 330 331 332 332 332 333 334 334
336 336 336 335 335 337 337 338 339 340 340 340 340 340 340 340 339 339 339 339 336 335 337 339 339 338 336 335 334 336 339 340 340 341 340 339 339 339 338 338 336 336 336 336 336 335 334 334 333 332 331 330 331 330 329 331 332 332 332 332 331 331 330 329 329 328 327 327 326 326 327 327 327 327 327 328 328 328 329 329 330 331 331 332 333
336 336 336 335 335 337 337 338 339 340 339 339 340 340 340 340 340 339 338 337 334 335 338 339 339 338 336 335 334 337 340 340 340 340 340 339 338 338 338 337 335 335 335 335 334 334 333 333 332 331 330 330 330 330 330 332 332 332 332 331 331 331 330 329 327 327 326 327 327 327 328 328 328 327 327 327 327 328 328 328 329 330 330 330 331
336 336 335 335 335 336 337 338 339 339 339 339 340 339 340 340 339 339 337 335 335 337 339 339 339 338 337 335 335 338 340 340 340 340 340 339 338 338 338 336 335 335 334 334 333 333 333 332 331 331 330 330 331 331 331 332 332 332 332 331 331 330 329 328 327 327 327 328 328 328 328 328 328 327 326 326 326 327 327 328 328 329 329 329 330
335 335 336 335 335 336 336 337 338 338 338 339 340 340 340 339 339 339 337 337 338 338 339 339 339 338 337 336 335 339 341 340 340 340 338 338 338 338 337 336 335 334 334 334 333 332 331 330 329 330 331 330 331 331 331 331 331 331 331 331 330 330 329 327 326 327 327 328 328 327 326 326 326 325 325 325 325 325 325 326 327 327 328 328 329
334 334 335 335 335 335 335 336 337 337 337 338 339 340 340 339 340 339 339 338 338 338 338 339 338 338 338 335 336 339 340 341 341 340 338 338 338 338 337 336 336 334 334 332 332 331 330 329 328 328 330 331 331 331 331 331 330 331 331 330 330 329 329 327 326 327 327 327 326 324 322 322 322 322 322 323 324 324 323 323 324 325 325 326 326
333 333 335 335 335 335 334 335 336 336 337 338 339 340 340 340 339 339 338 337 336 336 338 338 338 338 337 336 337 339 340 341 341 339 338 338 338 338 337 336 335 333 333 331 331 330 329 329 328 327 329 331 331 330 329 329 330 331 331 330 329 329 328 327 326 326 326 326 324 322 319 317 317 317 318 318 319 320 320 321 322 322 324 324 324
333 333 334 335 335 335 334 334 335 336 337 338 339 340 340 340 339 338 337 336 336 337 338 338 338 338 337 336 338 340 341 341 340 339 338 338 338 337 336 334 333 332 331 330 329 329 328 328 329 329 328 329 330 328 328 327 328 331 331 329 328 328 327 326 326 325 326 325 323 320 317 315 314 314 314 314 314 315 316 318 320 321 322 323 323
333 333 335 336 335 334 334 335 335 335 337 338 339 340 339 339 338 337 337 336 337 338 338 338 338 338 337 338 340 340 340 340 339 338 338 338 337 335 335 333 332 331 330 330 330 329 328 328 329 330 329 328 328 327 327 326 326 330 331 330 328 328 326 325 325 325 325 325 323 320 317 315 314 313 313 312 312 313 314 316 318 319 320 321 321
335 335 335 335 335 335 335 335 335 335 336 337 339 339 338 338 337 337 337 337 338 338 338 338 338 337 338 339 340 339 339 339 338 337 337 336 335 334 333 332 331 330 329 329 329 328 327 328 329 329 328 328 327 326 326 325 326 329 331 330 329 327 325 325 324 324 324 324 323 321 319 317 315 314 313 311 311 312 313 316 317 317 318 319 319
336 336 335 335 335 334 335 335 335 335 337 337 338 338 337 336 336 337 337 337 338 338 338 338 338 338 339 339 339 338 338 337 337 336 336 335 334 333 331 330 329 329 328 328 327 327 328 329 329 328 327 328 328 325 323 325 327 330 331 330 329 326 324 324 323 323 323 323 323 322 319 318 317 315 313 311 310 310 312 315 316 316 316 316 316
337 337 336 336 335 335 335 335 335 336 337 336 336 336 335 335 335 336 337 337 337 338 338 338 339 339 339 338 338 337 337 336 336 335 334 333 332 331 330 329 329 328 328 327 327 328 328 328 328 328 327 326 326 323 322 325 328 329 330 330 329 327 325 324 323 322 322 322 323 322 320 318 317 316 314 311 308 308 311 313 314 315 315 314 314
338 337 337 337 336 336 336 335 335 336 335 335 334 334 334 334 334 336 336 337 337 338 338 338 338 338 338 338 337 336 335 335 334 333 332 331 330 329 329 328 328 328 328 328 327 327 327 326 326 327 327 326 325 323 322 323 326 327 329 328 327 328 327 326 324 322 321 321 322 322 320 318 316 315 312 309 307 308 309 311 312 312 313 313 312
338 338 338 338 337 337 337 335 335 335 336 335 329 326 332 334 334 336 336 337 337 337 337 337 337 337 336 336 335 334 334 334 333 331 331 330 329 328 328 328 328 327 327 328 327 326 326 325 325 325 326 327 326 324 323 323 324 325 326 326 326 326 324 325 324 323 321 320 320 321 320 319 316 313 310 308 307 307 308 309 309 310 311 311 310
338 338 338 338 337 337 337 336 336 336 337 335 326 325 333 335 335 336 336 336 336 336 336 335 335 335 334 333 333 333 332 332 331 330 329 329 328 328 328 328 327 327 327 327 326 325 325 324 324 323 323 325 325 324 323 322 322 322 324 324 325 324 322 322 323 323 322 320 320 320 320 319 317 314 310 308 307 306 306 307 307 308 309 309 309
338 338 338 338 336 336 336 336 337 337 337 336 332 332 335 335 336 336 336 336 336 335 335 334 333 332 332 331 331 331 331 331 330 329 329 328 328 328 327 327 327 326 326 325 324 324 323 322 322 322 321 321 323 324 323 322 321 321 322 322 322 322 321 321 321 322 322 321 320 319 319 318 316 313 309 307 308 306 305 306 306 307 308 308 308
338 338 338 338 336 335 336 335 336 338 337 336 335 335 335 335 337 337 336 337 336 335 335 334 332 332 331 331 330 330 330 330 329 329 328 328 328 327 327 326 326 326 325 324 323 322 322 321 320 321 320 319 320 323 322 321 321 320 320 320 320 320 320 320 319 319 320 320 320 319 318 318 317 314 309 306 306 306 305 305 305 306 306 307 307
338 338 338 337 336 336 335 335 336 337 337 336 336 335 335 335 336 337 337 337 336 335 334 332 332 331 330 330 329 330 329 329 329 328 328 328 327 326 326 326 325 325 324 323 322 321 320 320 320 319 319 318 318 320 319 319 320 320 319 319 319 319 318 318 318 318 318 318 318 318 317 317 317 314 310 306 305 305 305 304 304 305 305 306 306
338 338 338 338 337 336 335 335 336 337 337 336 336 335 335 335 336 337 336 336 335 334 332 331 331 330 330 329 329 329 329 328 328 328 327 327 326 326 326 325 325 324 323 322 321 320 319 319 319 318 318 317 317 317 317 317 317 317 318 319 319 318 318 317 316 317 317 317 316 316 316 316 316 314 309 307 305 304 304 304 303 304 305 305 305
338 338 338 337 338 337 335 334 335 337 336 336 335 335 335 335 336 336 336 335 334 333 331 330 330 330 330 329 329 329 328 328 327 327 326 325 325 325 325 324 324 322 321 320 320 319 318 318 317 317 317 317 316 316 315 315 315 315 316 317 318 318 318 316 316 316 316 316 315 315 315 314 315 313 307 305 306 304 304 304 303 303 304 304 304
338 338 338 337 338 338 335 334 334 335 336 335 335 334 335 335 335 336 336 335 334 333 331 330 330 329 330 329 329 328 328 327 326 326 325 325 325 325 324 324 322 321 320 319 319 317 317 317 316 316 316 316 315 315 314 314 314 314 314 314 315 315 315 315 314 314 314 315 314 313 313 312 313 311 305 305 305 304 304 304 303 303 303 303 303
Wind_Speed
23 28 23 24 25 25 23 20 22 21 21 20 19 18 19 21 21 19 19 19 19 19 18 17 17 17 17 17 17 17 18 18 16 15 14 15 15 15 15 15 14 14 14 13 13 13 12 12 11 10 10 10 9 9 9 10 10 11 11 11 11 11 11 11 11 11 10 9 8 7 5 5 5 6 5 5 3 3 2 2 2 3 3 0 1
27 28 23 25 26 25 23 20 21 20 21 20 18 18 19 20 20 19 19 19 19 19 17 17 17 16 17 17 17 17 18 17 16 15 14 15 15 15 15 15 15 14 14 14 14 13 13 12 10 10 9 9 9 9 9 10 10 10 10 10 10 11 11 10 10 9 8 7 6 5 4 4 5 5 5 5 4 4 2 2 1 4 2 1 2
28 27 22 26 27 26 23 21 21 20 21 20 18 18 19 20 20 19 19 19 19 19 17 16 16 16 16 17 16 16 17 17 16 15 15 15 15 15 16 15 14 14 14 14 14 13 12 11 9 8 7 8 9 9 9 9 9 8 9 9 10 10 10 9 8 8 7 7 6 6 6 6 6 5 6 6 6 4 3 2 2 3 1 1 2
28 24 21 26 26 26 23 21 21 19 21 20 18 18 18 20 20 20 19 19 20 19 18 16 15 15 16 16 16 16 16 17 16 16 15 15 15 15 15 14 14 14 15 14 13 11 10 9 8 7 6 7 8 8 7 8 8 7 7 7 8 8 8 7 7 7 6 6 6 7 6 6 5 6 6 6 6 4 2 2 2 2 1 1 1
27 23 22 26 25 26 24 22 22 19 21 20 18 18 19 20 20 20 19 19 19 18 17 16 15 15 15 16 16 15 16 17 16 16 16 15 15 14 14 14 14 14 13 12 11 10 9 8 7 6 5 5 5 6 6 6 6 6 6 6 6 6 6 6 6 6 6 5 6 6 5 5 4 5 6 5 6 5 3 3 3 3 2 1 0
26 22 23 24 23 25 24 24 22 20 21 20 18 18 19 21 20 20 19 19 19 17 17 16 15 14 14 15 15 15 15 16 16 15 15 15 13 12 13 13 13 12 12 11 10 9 8 8 8 6 4 3 3 3 4 5 5 5 4 4 4 5 6 7 8 8 7 7 6 6 5 5 4 4 5 4 5 5 4 4 4 4 3 2 1
23 21 21 22 23 24 25 25 23 21 21 20 18 18 20 21 20 20 20 19 18 17 16 15 14 13 13 13 13 13 14 15 16 15 15 14 13 11 11 11 11 11 11 10 9 9 8 8 8 7 5 4 3 2 2 3 4 4 3 3 4 5 7 8 9 9 9 7 6 6 4 4 4 4 5 5 3 4 4 6 6 5 4 4 1
20 19 19 21 23 24 24 25 23 22 21 20 19 19 20 20 20 20 20 18 17 16 15 14 14 13 12 11 11 12 13 14 16 15 14 14 13 11 10 10 10 9 10 10 9 9 8 8 8 7 6 4 3 3 3 3 4 4 4 3 4 5 7 9 10 9 8 6 5 5 4 4 4 3 5 5 3 3 5 8 8 7 6 5 2
19 19 19 20 22 24 24 24 24 22 21 20 19 19 20 20 20 20 19 18 17 16 14 14 13 12 10 10 10 11 12 13 14 14 14 13 12 11 10 9 8 8 8 9 9 9 9 8 8 8 7 6 5 5 5 6 6 5 5 4 4 5 7 9 9 8 6 5 4 4 3 3 3 3 5 5 4 4 6 8 7 8 8 6 5
19 18 19 18 21 24 23 23 23 21 21 20 19 20 20 20 20 19 19 17 17 15 14 13 11 10 10 9 9 10 11 12 13 13 13 12 11 11 10 9 8 7 7 8 8 8 9 9 9 9 8 7 8 8 7 7 6 6 5 4 4 5 7 8 9 9 6 3 2 3 3 2 2 3 5 5 5 4 6 7 5 6 7 7 6
19 18 18 19 22 24 23 23 23 21 20 19 19 20 20 20 20 19 18 17 16 15 14 12 11 10 9 9 9 9 10 11 12 11 11 11 11 10 10 9 7 6 6 7 7 8 9 9 9 10 9 9 9 8 7 7 6 5 4 3 3 5 6 7 9 10 8 4 2 2 3 4 3 3 5 5 5 5 6 7 6 6 7 7 7
19 18 18 20 23 23 23 23 23 20 19 19 19 19 19 19 19 18 18 17 16 15 14 12 11 9 9 9 9 8 8 9 10 10 10 11 10 10 9 8 7 5 6 6 6 7 8 8 9 9 10 9 8 7 7 6 4 4 3 3 3 5 6 7 8 10 10 7 4 3 3 4 3 4 5 6 5 6 7 6 6 6 7 8 8
20 18 19 21 22 23 23 23 21 20 19 18 19 19 19 19 18 17 17 17 16 14 13 11 10 10 10 9 9 8 8 8 8 9 10 10 10 9 9 8 7 5 6 6 6 6 7 8 8 8 9 9 8 7 6 5 4 3 3 4 4 5 6 6 7 8 9 9 7 4 4 4 5 6 6 6 6 7 8 7 7 7 7 8 9
21 20 21 21 21 22 23 23 21 20 19 18 19 19 19 18 17 17 16 15 14 13 11 10 9 9 10 9 9 8 7 7 7 8 8 9 9 9 8 7 6 6 6 5 5 5 6 7 7 7 7 7 7 6 5 4 4 3 3 4 5 6 6 6 7 6 8 9 8 6 5 5 6 7 7 7 7 8 9 8 8 8 9 9 9
21 22 22 20 20 23 23 22 21 19 19 19 20 19 19 18 17 16 15 14 13 11 10 9 9 9 10 9 8 8 7 7 7 7 7 8 8 8 8 7 5 5 5 4 5 5 5 5 6 6 6 6 5 5 4 4 4 4 4 5 6 7 7 7 7 7 8 8 8 7 6 6 7 7 8 8 8 9 10 10 10 10 10 10 10
20 22 22 20 20 22 22 21 20 20 19 19 20 19 18 18 16 15 14 13 11 10 10 10 10 10 10 9 8 8 7 7 7 6 6 6 7 7 6 5 4 5 5 5 5 5 4 4 4 4 5 4 4 4 4 4 4 4 5 5 6 7 8 7 7 8 8 8 8 8 6 7 7 7 8 9 10 11 11 11 11 11 11 11 11
20 21 20 20 20 22 21 20 19 19 19 19 19 18 17 16 15 15 13 12 11 11 11 12 12 12 12 11 10 9 8 8 7 6 6 6 6 6 5 5 4 5 5 5 5 4 3 2 2 3 4 4 4 4 4 4 4 5 5 6 6 7 7 7 8 8 9 9 9 9 7 7 8 8 8 9 10 11 12 12 12 12 12 13 13
19 19 19 19 21 21 20 19 19 19 18 18 18 18 17 15 15 14 13 12 11 12 12 13 14 14 14 14 13 12 12 11 11 10 9 9 8 7 6 5 5 5 5 4 4 3 2 2 2 3 3 3 3 3 3 4 4 5 5 6 6 6 6 7 8 9 9 10 9 9 8 9 9 9 9 10 11 12 13 13 13 13 14 14 14
18 18 19 19 20 20 19 19 19 19 19 18 18 17 16 14 14 14 13 12 12 13 14 15 15 16 16 15 14 14 13 14 14 14 14 14 14 12 11 10 8 7 6 5 5 4 4 3 3 3 3 3 3 3 3 3 4 5 5 5 5 5 6 6 7 8 9 9 9 8 9 10 10 9 9 10 11 12 13 14 14 15 15 15 15
16 17 18 18 20 20 19 19 19 20 19 19 18 17 16 15 15 14 12 13 14 14 15 15 16 16 15 14 14 14 13 14 14 14 16 16 16 16 15 14 13 11 10 9 8 7 6 6 5 4 4 3 3 3 3 3 3 4 5 6 6 6 6 6 6 7 8 8 9 9 9 10 10 10 10 10 10 12 13 15 16 17 16 15 14
16 17 18 18 20 20 20 19 19 21 18 18 18 16 16 15 14 14 13 14 14 15 15 15 15 14 14 15 14 13 13 13 12 12 14 15 15 15 15 14 13 12 11 10 9 7 6 5 4 4 4 3 3 3 3 3 4 5 6 7 7 8 8 8 7 8 8 8 9 9 9 9 9 10 10 10 11 12 14 15 17 18 19 16 14
17 18 18 19 20 20 20 19 19 20 18 18 17 16 16 15 13 13 14 14 14 15 14 12 12 13 14 14 12 12 12 11 11 10 10 11 13 13 13 12 11 10 9 8 7 6 5 4 3 3 3 4 4 5 5 5 6 6 7 8 8 8 8 9 8 8 7 8 8 9 9 9 9 9 9 10 11 13 14 16 18 19 19 18 15
20 19 19 19 20 20 20 19 19 20 18 17 16 16 16 15 13 13 13 12 13 14 12 11 11 12 12 11 10 11 11 10 10 10 9 10 11 12 11 10 9 8 7 6 6 5 4 4 3 3 4 5 6 6 7 6 7 7 7 8 7 8 8 8 8 8 7 8 8 8 9 9 9 9 9 10 11 13 14 15 18 19 19 19 17
21 20 19 20 20 19 20 20 19 20 19 16 16 16 15 14 12 12 11 10 12 13 12 11 11 13 12 10 10 11 11 10 10 10 9 8 9 10 10 8 7 7 5 5 4 4 4 4 4 4 5 6 6 6 7 6 7 7 7 8 8 8 8 8 8 8 8 9 9 9 9 10 10 10 10 10 10 12 12 13 16 18 19 20 20
21 20 20 21 20 20 19 19 20 20 19 17 16 16 15 13 12 11 10 9 12 13 12 11 11 13 12 10 11 11 10 10 10 10 9 8 8 8 8 7 6 5 4 4 4 4 4 5 5 5 5 6 6 6 7 7 8 8 8 8 8 8 8 9 9 10 9 10 11 12 11 11 12 12 12 11 11 12 12 13 14 15 17 19 20
20 20 22 23 22 20 19 20 20 20 19 18 17 17 16 14 12 12 10 10 13 13 11 10 11 11 11 10 10 9 9 9 9 10 9 9 8 7 6 5 5 5 4 4 4 5 5 6 6 6 6 6 6 7 8 9 9 8 7 8 8 8 9 9 10 11 11 12 13 13 13 13 13 12 13 13 12 13 13 14 15 15 16 18 19
20 21 22 22 21 20 20 20 21 21 19 18 18 16 16 14 13 13 12 11 12 12 10 10 10 10 10 10 9 8 8 9 9 9 8 8 7 6 5 5 5 4 4 4 5 6 7 6 6 6 7 7 7 8 8 9 10 9 7 7 8 8 9 9 10 10 11 12 12 13 13 12 12 12 12 13 13 13 14 15 14 15 15 15 17
19 20 21 21 21 20 21 21 21 22 20 19 17 16 16 14 14 13 12 11 11 10 9 10 11 10 9 9 8 8 9 9 9 8 8 7 6 5 5 5 5 4 4 5 5 6 6 6 6 7 7 8 8 9 9 8 9 9 8 8 9 10 10 10 9 9 9 9 9 10 10 10 10 10 11 11 12 13 13 13 13 13 12 12 13
18 20 21 21 21 20 21 22 22 22 21 19 17 16 16 15 14 13 11 11 11 11 11 12 11 9 8 8 7 8 9 8 8 7 7 6 5 5 5 4 5 4 5 6 6 6 6 6 6 6 7 8 9 10 11 9 8 8 8 9 9 9 9 9 8 7 7 7 8 8 8 8 8 8 8 9 10 11 11 12 12 11 10 10 10
18 20 20 20 21 20 21 22 22 21 21 20 17 17 17 15 14 12 11 11 11 13 13 12 10 8 7 7 7 8 8 7 7 6 6 6 5 4 4 4 5 5 6 6 6 6 5 6 7 7 7 8 9 12 12 9 8 8 8 9 8 8 7 7 7 8 8 8 8 8 8 8 7 7 7 8 9 10 10 11 12 11 10 9 10
18 19 19 19 21 20 21 22 21 20 21 20 18 17 17 16 13 12 11 10 12 15 14 12 10 7 6 6 7 7 7 7 6 5 5 5 4 3 3 4 4 5 6 6 6 6 6 7 8 9 9 10 10 12 11 9 8 8 8 8 7 7 7 8 8 9 9 9 9 9 9 9 9 9 9 9 9 10 11 11 12 11 10 10 11
17 19 18 18 20 20 20 21 20 19 20 19 18 17 17 15 13 11 10 11 14 16 14 11 9 7 7 6 5 6 6 5 5 4 4 4 3 2 3 3 4 5 6 6 6 7 7 8 10 10 11 11 10 10 10 9 8 8 8 7 7 7 7 8 9 10 10 10 10 10 10 10 10 10 9 9 9 10 10 11 11 11 11 10 10
17 19 18 18 19 19 19 20 20 19 19 20 19 18 16 13 11 11 11 13 15 15 13 11 9 7 7 5 4 5 5 4 3 3 3 3 2 2 2 2 4 5 6 6 7 7 7 7 9 9 10 10 9 10 10 9 8 8 7 6 6 7 8 9 10 11 11 11 12 12 11 10 10 11 11 11 10 10 11 11 11 12 12 11 10
15 17 18 17 17 17 18 18 19 20 20 20 19 18 15 12 11 13 15 15 14 13 12 11 9 7 6 6 5 5 5 3 2 2 2 2 2 3 2 1 3 5 6 6 7 7 6 6 7 7 8 9 8 9 10 8 8 7 5 5 6 7 9 10 11 12 12 12 12 11 10 10 10 11 12 13 13 13 13 13 13 13 13 13 12
16 18 18 17 16 17 17 17 19 21 21 20 18 16 15 13 13 14 14 13 11 11 12 11 9 7 6 6 5 5 4 3 3 2 1 2 3 3 2 0 3 6 6 6 7 7 6 7 7 7 7 8 8 9 8 8 7 5 5 6 6 7 9 11 12 12 12 11 11 12 12 12 12 13 14 14 13 14 15 14 13 13 13 13 13
21 20 17 17 17 17 19 19 20 22 21 20 18 15 15 15 14 12 12 11 11 12 12 11 9 7 7 6 6 4 3 4 4 2 1 2 3 4 3 0 4 5 5 6 7 7 7 7 8 9 8 8 9 9 8 7 6 4 5 6 7 8 9 11 12 12 11 11 12 15 17 17 17 18 18 15 13 14 16 16 14 14 14 14 15
24 22 18 19 19 18 20 20 21 23 21 19 18 15 14 15 15 14 13 12 12 12 11 11 9 8 7 6 6 5 4 5 4 2 1 2 4 4 2 1 3 3 4 6 7 6 6 6 7 8 7 7 8 10 10 8 6 4 5 7 8 8 10 11 12 12 11 12 14 17 19 21 21 21 21 20 18 17 18 17 16 16 16 15 16
24 23 20 19 19 19 19 20 21 22 21 20 18 15 14 15 15 15 13 12 11 11 10 10 9 9 8 7 6 5 5 5 4 3 2 3 4 3 2 2 3 4 5 6 5 6 6 6 5 6 6 7 8 10 11 9 6 3 5 7 9 9 10 11 12 12 11 12 14 17 19 22 23 23 23 23 23 22 21 19 17 17 17 16 16
22 21 18 17 18 17 17 19 21 22 21 20 18 15 14 14 13 14 13 12 11 10 10 9 10 9 8 7 6 6 6 6 5 3 3 5 4 2 2 3 3 4 4 3 4 4 5 5 4 4 6 7 7 9 11 9 6 3 5 6 8 10 11 12 13 13 11 10 13 15 18 21 23 24 24 24 23 23 22 21 18 17 17 16 16
19 16 16 17 18 18 17 17 19 21 20 20 18 14 13 12 11 12 12 11 10 9 9 10 10 10 8 8 7 6 7 8 5 4 4 5 4 3 2 3 3 3 2 2 3 4 4 4 4 5 6 6 7 10 11 9 5 3 6 6 5 8 11 13 14 14 12 10 11 13 16 20 22 24 26 25 23 22 21 20 18 17 16 14 16
15 15 17 18 19 19 19 19 19 20 19 19 17 14 12 10 10 10 10 11 10 10 11 11 10 10 9 8 8 8 9 9 6 5 5 4 3 2 2 3 2 2 2 3 3 3 4 3 4 6 7 7 7 11 12 8 5 2 4 4 4 7 10 13 14 14 13 11 10 11 15 19 21 24 25 25 24 22 20 18 17 17 17 15 15
16 17 18 19 19 20 20 19 19 19 18 18 17 14 13 12 10 9 10 12 11 11 12 12 11 10 10 10 10 11 10 9 7 5 4 3 2 2 2 1 1 1 2 3 2 3 4 4 5 5 6 7 8 12 14 8 5 4 0 1 2 5 7 10 13 14 13 12 9 9 13 18 22 23 24 23 22 21 19 18 17 17 18 17 16
18 18 18 19 19 20 19 18 19 18 17 18 18 16 16 15 13 12 12 13 13 12 12 12 12 11 12 12 12 12 10 8 6 4 3 2 2 1 1 1 1 1 2 2 2 3 4 5 6 5 4 5 7 11 14 11 7 5 2 1 2 1 4 5 9 11 12 13 11 9 10 14 20 22 22 20 20 19 19 18 18 19 19 19 17
18 18 18 18 19 18 18 19 20 18 19 21 22 21 19 17 15 14 14 14 14 14 12 11 12 13 14 14 14 12 10 8 6 4 2 1 1 1 1 1 1 2 2 1 2 3 4 5 6 6 5 4 6 9 11 11 9 6 3 1 2 2 1 3 7 5 8 12 12 11 9 10 16 20 19 19 19 18 19 19 20 19 20 21 18
17 19 19 19 20 17 16 20 20 18 20 23 26 26 23 19 16 15 15 15 13 12 12 10 12 15 16 16 14 12 9 7 5 3 2 1 2 1 1 1 1 1 1 1 3 4 4 5 6 7 8 6 5 7 9 10 11 9 6 3 2 2 2 6 7 2 5 9 11 12 10 10 14 16 16 17 18 18 19 20 20 20 20 21 19
16 19 21 21 22 20 18 20 18 18 20 23 28 29 25 23 21 19 18 15 13 12 12 12 15 18 17 16 14 11 8 6 4 3 3 2 2 2 1 1 1 2 2 3 4 4 5 6 7 8 9 9 6 5 7 8 9 10 9 7 5 4 3 4 5 2 2 5 8 11 11 11 12 14 15 16 17 18 19 19 20 20 20 20 19
16 18 21 21 22 23 24 23 20 18 20 24 28 27 25 25 24 23 21 17 15 14 13 16 18 17 15 14 13 10 7 6 5 4 3 3 2 2 1 2 2 3 3 3 4 5 5 6 7 8 8 9 8 7 6 6 6 8 8 7 7 6 5 4 3 3 3 3 5 8 11 10 11 13 14 16 18 19 20 20 20 19 19 19 19
16 17 20 20 22 27 29 30 27 20 20 26 28 25 24 26 26 24 22 17 15 17 18 19 17 13 13 14 13 10 8 6 5 5 4 3 2 2 2 3 3 4 3 4 5 6 6 6 7 8 8 10 11 10 8 7 6 6 6 6 6 6 7 7 6 4 4 3 3 6 9 10 9 11 12 14 16 18 18 19 19 18 17 18 18
18 18 20 20 23 27 29 34 32 21 21 28 28 24 24 26 26 25 22 17 18 21 20 17 13 11 13 14 12 10 9 8 6 5 4 4 3 3 4 4 4 4 4 5 5 5 5 6 7 8 9 11 12 11 11 10 9 8 6 5 5 5 6 7 8 7 5 4 4 5 8 9 7 10 12 12 14 16 17 19 20 19 17 17 17
20 19 21 22 23 23 27 35 32 20 21 28 27 25 26 27 27 26 24 22 22 23 19 14 15 15 14 13 13 11 10 9 7 6 5 4 3 4 5 5 4 4 5 5 5 4 5 6 8 9 10 11 12 12 12 11 11 11 10 7 7 6 5 6 8 9 7 5 5 5 7 8 6 9 13 12 13 16 17 18 20 19 18 17 17
19 19 21 22 23 21 22 29 28 22 23 27 28 28 30 30 28 26 25 25 25 25 21 17 19 20 15 12 13 13 11 9 7 6 5 4 5 6 7 6 4 4 5 5 4 5 6 7 8 9 10 11 11 11 11 11 11 12 12 10 9 8 7 7 8 9 8 6 6 5 7 8 6 8 12 12 12 14 17 17 18 19 18 18 17
Wind_Direction
172 168 162 169 174 176 169 161 157 150 149 147 148 148 146 144 143 141 138 139 138 137 133 131 128 125 123 120 118 119 122 120 117 113 113 114 112 110 108 106 105 104 100 99 98 96 96 97 96 92 87 88 91 93 99 102 104 103 100 97 93 92 90 88 87 86 83 83 81 74 61 43 21 17 25 19 20 22 23 25 11 47 51 80 168
168 166 162 170 174 176 168 161 159 152 151 149 150 149 148 148 146 143 141 143 141 138 133 129 127 125 122 119 117 119 122 119 117 116 115 115 113 110 108 106 105 103 103 102 99 97 96 96 95 92 85 86 91 90 96 100 101 101 98 97 94 92 89 87 86 82 78 75 67 55 39 17 0 3 11 9 14 11 21 26 39 76 56 226 119
164 164 162 170 175 176 168 162 160 154 153 152 152 150 150 150 147 144 143 146 143 141 135 132 130 126 121 118 116 119 121 119 118 118 117 116 114 111 108 107 106 107 108 106 102 99 95 93 91 89 87 85 88 89 94 100 102 102 99 98 94 87 79 77 75 72 67 62 52 40 30 17 12 14 14 13 15 14 32 26 58 101 129 183 101
164 163 162 170 175 175 167 163 162 156 156 154 154 152 151 150 148 145 144 146 145 142 137 133 130 126 122 119 118 119 121 121 122 120 119 116 113 110 109 110 110 113 112 108 103 98 94 91 88 84 82 78 81 88 96 102 106 106 102 97 89 79 67 63 58 55 51 48 42 36 33 27 20 14 15 15 15 24 47 27 42 88 99 93 100
164 162 162 167 173 175 167 163 163 158 158 156 155 153 152 150 146 143 144 146 144 140 137 134 131 129 126 123 122 122 122 123 124 122 120 114 112 112 113 112 109 115 113 109 104 97 94 92 91 87 81 75 75 83 97 108 112 109 103 92 81 68 52 42 32 27 24 21 24 23 18 21 19 7 11 11 15 29 37 30 25 11 3 347 339
162 160 160 164 170 173 168 164 164 160 160 159 156 154 152 147 144 143 145 145 142 140 138 136 135 133 130 129 128 127 126 127 128 123 122 116 113 115 115 112 109 111 107 102 96 91 89 85 86 86 84 77 67 65 89 110 118 116 103 87 65 47 30 17 9 3 360 360 2 358 354 3 8 359 8 15 9 20 16 8 4 353 339 310 332
157 158 160 164 166 171 169 165 164 160 160 161 158 155 150 145 144 145 145 143 143 142 140 139 138 136 133 134 133 132 130 132 132 127 126 121 115 114 115 114 108 103 97 93 86 81 80 79 79 78 76 68 55 38 56 93 117 121 107 78 47 30 15 6 360 352 349 347 333 331 336 340 352 349 1 21 358 353 353 347 348 344 333 306 314
157 159 161 166 167 170 168 165 164 161 162 162 159 155 149 146 145 145 144 144 145 143 143 142 141 139 135 136 136 134 133 137 137 132 131 128 123 118 117 117 109 102 95 89 81 74 71 74 74 68 63 57 55 49 62 85 103 107 97 70 41 22 9 2 352 347 345 338 317 320 329 321 342 345 352 19 2 338 332 338 342 338 340 317 310
159 161 163 166 167 169 167 165 164 161 163 163 160 155 149 147 146 145 145 146 146 144 147 145 143 143 139 138 138 136 134 140 142 137 134 132 129 123 118 116 110 105 98 88 79 72 68 69 68 64 61 64 74 78 86 91 93 91 82 67 40 16 6 0 355 352 346 337 327 334 341 323 326 331 345 9 11 349 326 334 336 328 332 320 319
159 162 164 164 167 168 166 165 164 162 163 163 160 154 150 148 146 146 147 147 147 147 148 147 147 147 144 141 141 139 135 140 146 144 142 139 136 130 124 117 110 110 107 95 82 72 69 69 69 67 70 81 90 93 96 94 91 85 73 62 34 8 2 4 9 7 356 343 343 349 358 0 328 320 341 358 4 353 332 333 328 318 325 322 325
159 163 165 165 167 168 167 166 163 162 162 163 159 153 151 150 149 148 148 148 149 148 149 151 152 150 145 142 141 141 138 140 145 148 152 154 149 142 134 124 120 120 116 106 90 79 73 73 73 71 76 85 91 94 95 94 89 79 64 50 14 359 1 5 18 18 16 10 348 345 346 3 354 327 339 349 350 340 333 333 330 326 329 328 329
160 162 164 165 170 170 168 166 164 163 162 162 157 154 154 152 151 150 150 150 149 149 152 154 152 150 144 142 142 140 140 143 148 149 152 159 159 152 141 131 138 130 118 117 102 90 81 78 76 73 74 78 83 85 86 86 78 65 46 24 0 354 359 2 12 16 20 22 7 345 327 336 334 327 337 341 333 324 326 328 327 325 324 320 318
161 163 163 164 172 173 169 166 163 163 163 161 158 157 156 153 152 152 154 152 150 151 155 156 153 149 143 142 142 143 147 149 155 155 151 155 158 158 148 138 143 128 118 120 112 104 91 84 80 76 74 74 74 75 75 75 66 49 22 3 355 352 355 357 2 3 6 11 11 358 328 318 308 319 328 326 320 313 320 323 320 315 310 308 306
160 161 163 165 172 174 170 166 163 166 165 162 160 159 157 154 155 156 156 153 151 152 153 153 151 145 140 142 145 152 159 156 159 158 153 153 155 159 160 153 136 117 120 120 117 113 98 89 84 80 75 71 68 65 64 56 48 29 6 349 343 341 347 352 351 349 349 354 1 356 333 319 309 313 315 310 307 301 305 310 309 304 300 301 299
160 159 163 167 172 173 172 167 165 167 166 164 161 161 159 157 159 160 157 152 149 149 148 144 142 138 138 145 152 161 164 162 163 156 150 151 155 157 162 165 142 118 119 114 121 120 104 94 85 80 71 65 57 51 44 29 20 5 349 334 330 331 337 345 346 343 344 346 349 349 332 318 315 311 307 302 297 293 294 297 298 296 294 294 292
161 160 164 168 169 170 171 169 168 167 166 166 163 164 163 160 163 162 154 148 146 145 142 139 138 135 136 139 143 148 150 154 158 152 144 142 152 155 153 152 135 119 109 106 120 123 111 97 81 72 57 47 36 25 12 356 352 347 341 331 325 324 328 336 343 343 342 342 340 342 330 320 326 317 305 299 292 289 289 288 287 289 288 288 287
162 163 166 168 168 168 169 170 171 169 166 165 165 167 164 164 166 158 148 146 146 143 142 139 135 132 128 125 123 124 124 126 128 128 127 127 141 146 140 132 118 110 103 103 112 118 117 97 70 51 30 18 10 0 350 338 330 333 339 337 330 327 327 330 340 343 342 342 338 337 327 323 332 325 310 301 292 288 286 278 272 274 276 281 283
164 166 168 168 168 168 170 171 171 170 166 166 169 170 167 168 166 153 147 148 146 145 143 138 133 128 122 117 113 110 107 104 103 102 102 104 111 115 115 115 109 108 106 105 110 111 105 76 47 31 18 13 9 3 352 338 329 328 334 344 343 340 336 333 339 341 342 344 343 338 332 330 334 330 318 306 296 289 285 277 267 263 265 274 279
166 167 169 169 169 169 170 171 172 172 168 168 172 171 170 171 164 152 150 150 147 147 143 137 132 126 121 117 112 106 102 99 96 94 93 92 92 93 94 93 93 95 95 97 100 95 89 78 66 54 41 33 26 16 2 349 340 334 333 340 345 347 343 340 338 336 340 344 343 342 337 334 333 330 322 311 300 291 286 282 275 269 264 265 270
169 169 170 170 171 171 171 173 174 175 171 170 172 170 172 172 162 154 152 149 147 147 141 138 132 125 122 118 114 109 104 101 97 91 90 89 88 89 88 87 87 87 88 89 91 92 90 85 75 63 50 37 23 12 0 353 344 335 329 326 328 334 336 334 329 327 331 334 336 340 337 334 334 333 328 318 307 297 289 284 280 277 271 263 262
171 171 173 172 174 175 174 175 176 176 172 171 170 168 172 168 160 156 153 149 148 145 139 136 130 124 122 118 115 110 107 103 98 92 90 88 88 89 88 88 87 87 88 89 92 93 91 86 74 58 46 29 15 3 353 341 331 323 317 315 316 322 324 323 321 319 320 320 323 328 326 328 333 334 333 327 317 307 296 288 283 278 274 267 260
171 172 175 175 176 177 177 177 177 177 172 172 171 167 169 165 161 159 154 150 148 145 140 136 129 125 124 120 115 111 109 103 96 94 93 91 90 90 90 90 91 91 90 92 94 94 92 84 64 41 26 11 0 353 347 339 331 324 318 317 320 322 321 319 320 320 318 316 318 317 315 318 324 329 332 330 324 315 304 295 287 280 276 270 267
172 172 176 178 179 179 180 179 178 177 173 173 172 168 167 164 166 161 154 151 148 146 141 136 132 129 126 122 117 114 110 105 100 97 93 89 89 89 88 88 91 92 92 93 92 87 79 68 49 25 9 359 355 351 349 347 341 337 334 335 336 334 331 328 328 329 326 324 325 319 313 313 315 319 323 324 324 320 311 298 289 282 277 272 271
174 172 175 180 181 181 180 181 179 176 174 173 171 169 167 166 168 161 155 151 148 146 142 137 133 129 127 122 117 113 108 102 101 98 92 88 88 87 86 85 85 84 83 78 71 65 56 47 28 8 3 360 358 355 352 350 346 344 344 344 343 340 337 335 333 332 331 330 328 320 315 313 312 311 311 311 313 316 312 299 290 284 277 271 267
171 172 176 181 182 181 180 181 180 177 176 174 172 172 170 169 168 162 156 154 152 148 144 138 134 131 127 121 115 111 107 100 97 95 92 92 91 88 87 87 87 84 74 64 52 42 36 28 18 12 12 10 6 359 351 346 342 342 342 341 339 337 335 332 326 324 323 320 315 310 310 308 308 307 305 305 304 307 308 303 298 292 282 274 267
172 176 178 181 181 181 179 178 179 178 178 177 175 175 173 172 169 166 160 158 158 152 148 143 138 135 129 122 116 112 108 102 98 95 90 88 87 84 84 83 83 81 70 58 42 31 25 21 21 21 17 12 5 355 349 344 342 340 341 340 338 335 331 328 323 319 317 314 312 309 309 305 302 300 297 297 297 298 298 300 303 299 289 279 275
176 180 179 178 180 181 179 177 177 178 180 180 177 177 176 174 171 168 164 163 163 159 155 150 144 139 133 125 119 115 110 107 100 93 87 84 86 85 80 74 68 64 60 49 35 25 21 20 18 17 9 4 359 353 351 348 346 344 344 344 341 338 333 331 327 325 323 321 321 318 316 312 306 300 295 293 291 292 291 294 301 304 302 290 285
176 179 178 178 180 181 180 177 177 178 180 181 180 180 179 175 173 170 168 166 165 165 160 154 150 144 138 129 121 118 112 107 101 94 90 86 86 85 75 65 57 51 47 36 28 21 16 15 12 10 3 358 355 353 353 351 349 347 347 345 340 338 335 335 335 336 337 337 339 332 324 319 314 308 302 297 293 292 292 296 300 308 314 303 294
176 177 178 179 180 180 181 180 178 178 180 183 182 183 181 176 175 173 171 169 166 167 163 157 154 148 142 135 126 121 114 109 103 97 93 85 76 74 66 54 48 40 30 20 17 18 15 14 10 6 359 355 354 351 351 350 350 348 345 343 341 343 345 350 356 3 9 9 11 360 347 340 329 320 310 303 298 296 296 300 304 312 319 314 305
175 174 176 179 182 183 183 182 180 179 181 183 185 185 183 179 178 176 172 171 170 168 163 161 160 153 149 143 133 126 120 113 105 98 90 80 69 66 59 52 46 27 14 9 10 19 18 12 6 1 354 353 351 347 347 347 348 347 346 347 350 357 6 19 27 30 31 27 26 20 10 4 355 345 330 318 312 310 309 310 314 319 323 322 313
172 172 175 178 182 185 185 184 182 180 181 183 186 187 184 181 178 176 174 173 173 168 165 166 163 157 157 151 143 137 128 118 108 101 89 81 82 78 68 64 41 12 6 6 7 12 8 359 352 348 346 347 346 343 344 347 349 350 352 359 9 21 34 41 40 38 36 31 26 23 19 16 10 0 348 339 332 328 328 325 324 325 326 325 319
173 174 175 177 180 185 187 185 183 183 183 184 187 189 185 183 178 176 177 175 173 170 168 170 165 162 161 156 154 147 135 124 115 107 95 96 104 102 95 68 17 4 3 2 2 358 352 345 339 338 340 343 343 343 347 353 355 355 359 14 28 40 47 44 42 41 37 34 29 25 23 21 19 13 4 355 347 342 339 336 332 333 331 323 320
177 177 175 176 179 184 186 185 185 186 187 187 189 191 187 182 180 178 179 177 174 172 173 173 170 170 169 169 167 154 142 131 128 123 110 112 120 128 116 48 3 4 357 353 350 343 340 337 335 337 342 344 344 349 356 2 1 360 9 30 43 53 52 45 45 44 43 41 35 31 26 24 25 24 21 16 9 3 357 352 347 348 345 336 332
175 178 177 178 179 182 184 184 187 189 191 191 191 194 190 182 182 181 181 179 176 176 177 177 176 178 181 186 184 164 152 143 155 157 131 131 145 150 141 28 5 360 343 331 330 331 334 338 343 347 348 347 350 355 360 2 1 7 31 50 56 62 56 48 48 48 47 42 35 34 31 28 27 25 26 23 19 18 14 9 6 6 360 353 353
179 180 181 181 181 183 183 183 189 190 193 196 193 193 191 186 185 183 182 179 179 180 180 181 180 186 193 198 197 177 166 169 176 174 140 153 165 173 173 98 355 345 322 310 321 331 339 346 353 356 353 353 357 358 358 358 2 20 56 64 65 67 58 50 51 52 47 41 39 41 40 36 33 30 28 24 20 19 19 17 14 13 8 6 5
192 186 181 182 183 183 182 182 188 191 194 197 194 192 191 189 187 187 185 182 184 184 184 185 184 194 201 202 202 191 193 192 181 186 188 172 186 198 189 297 333 322 301 308 322 330 342 353 356 1 2 358 356 356 358 3 13 44 74 74 73 71 61 52 53 52 47 47 50 49 46 42 39 36 33 28 23 17 17 20 19 12 10 10 8
199 193 183 183 185 183 183 183 186 191 193 194 192 190 190 191 192 193 192 191 191 189 189 189 192 204 203 199 204 206 208 196 185 185 175 187 202 206 200 314 318 300 298 314 322 329 346 358 1 6 7 2 357 355 358 9 26 66 92 83 80 75 65 56 55 54 50 55 55 51 48 45 41 40 38 34 30 23 18 19 22 20 16 14 10
202 198 190 185 184 182 185 185 186 190 192 192 191 191 191 192 194 198 199 198 196 194 196 198 202 203 196 200 208 209 201 186 177 163 156 190 200 205 248 303 307 302 309 317 325 336 347 359 10 11 7 8 3 357 357 5 24 82 115 95 83 77 69 61 58 55 51 55 56 52 49 46 43 41 40 37 33 29 23 18 19 23 22 19 15
202 199 193 187 185 182 185 187 188 192 194 192 191 190 192 193 194 198 200 199 200 202 204 201 197 193 192 203 208 202 190 176 167 155 168 192 196 219 268 288 302 307 312 324 340 345 347 359 17 19 10 8 6 3 359 1 22 103 137 113 90 77 72 65 60 56 51 53 56 55 49 45 42 40 38 36 33 29 26 23 20 20 21 20 18
200 195 190 189 187 182 183 188 189 192 193 194 194 189 190 192 189 191 193 194 201 207 199 188 185 186 193 199 198 191 180 172 165 162 179 192 200 229 269 289 300 305 314 335 344 345 352 5 21 22 18 9 6 12 6 5 24 118 149 132 107 89 78 69 62 57 52 50 53 52 46 41 39 37 34 32 30 28 26 26 25 21 18 16 16
196 193 189 188 187 182 182 185 190 192 191 191 189 184 185 189 186 183 182 186 195 196 184 179 181 185 191 191 185 181 176 171 166 165 181 197 216 249 283 291 297 308 323 340 341 352 10 24 24 17 19 18 16 18 15 13 17 69 147 141 123 111 88 70 63 58 52 47 47 47 41 35 34 32 28 26 25 25 26 27 27 25 22 16 10
192 193 189 187 188 184 180 182 188 189 186 184 182 183 187 190 193 185 176 180 186 185 178 177 181 182 183 180 176 176 174 169 164 168 186 210 241 265 277 268 300 354 353 355 357 18 32 32 26 17 19 31 31 23 24 28 14 7 120 171 133 136 115 76 60 56 51 45 44 47 41 34 32 28 23 22 23 23 26 27 27 27 26 22 13
193 194 191 189 189 186 180 182 187 182 178 180 179 187 194 195 198 192 183 181 178 177 177 177 180 179 175 173 173 172 169 165 163 172 195 223 257 254 225 168 93 40 19 10 25 37 34 27 25 25 26 44 46 31 31 35 18 352 316 326 41 145 162 94 53 53 52 47 49 47 42 37 32 27 22 23 25 24 26 26 27 28 27 25 18
194 194 192 192 191 188 182 183 185 177 174 177 178 188 195 194 196 191 184 177 169 170 173 172 175 175 170 169 169 167 164 163 162 169 195 219 223 195 154 132 106 58 36 30 54 40 31 22 23 35 44 54 56 43 40 39 30 16 356 1 0 348 144 18 8 46 57 45 46 44 41 38 30 25 24 25 26 25 25 26 27 26 25 25 20
195 195 193 191 189 189 188 188 185 173 173 177 179 186 188 185 180 172 169 162 155 161 162 161 168 169 166 166 165 162 162 160 156 159 173 184 168 146 132 128 110 80 73 71 64 42 25 23 28 44 50 55 66 59 53 48 45 45 40 38 1 8 34 345 340 37 64 41 41 37 37 38 28 24 25 25 25 24 23 23 24 24 23 23 20
197 196 196 193 188 187 189 193 189 174 172 176 179 182 182 181 172 162 160 153 149 160 162 161 165 165 164 163 161 158 157 153 149 155 158 159 148 121 121 136 130 115 101 77 58 37 22 30 39 47 50 54 69 74 62 54 54 57 55 55 51 44 25 339 332 357 37 42 39 30 30 32 27 25 26 25 24 24 23 20 20 21 20 20 19
196 196 199 196 189 189 188 191 194 183 174 174 179 181 179 180 174 167 166 161 158 166 170 169 166 164 162 159 157 152 150 151 148 153 151 138 122 109 130 146 139 124 99 66 45 38 35 42 45 49 53 58 68 76 65 57 59 59 58 62 64 65 53 27 5 344 343 18 29 24 20 18 21 24 25 25 24 23 22 19 16 17 16 17 17
192 194 198 194 190 193 190 190 194 189 178 175 177 179 179 179 174 169 169 167 167 168 169 168 164 159 157 155 155 152 149 153 152 153 145 126 109 122 147 154 140 121 85 52 43 45 48 51 51 53 58 61 67 74 70 62 61 58 58 64 69 75 66 53 40 12 345 337 1 16 7 1 15 24 23 26 26 23 22 19 15 14 12 14 15
191 193 196 196 194 192 185 186 191 186 178 180 178 178 182 181 176 171 168 166 167 165 163 161 156 151 152 154 156 155 154 156 154 151 137 121 121 143 155 153 137 110 71 53 53 56 58 63 66 63 62 64 65 68 70 66 62 59 58 61 69 79 70 56 41 26 12 351 348 358 354 351 10 26 22 22 25 23 22 18 16 15 11 11 12
190 193 197 199 199 193 179 178 185 184 181 186 182 179 183 183 180 175 169 165 163 162 158 155 156 156 154 156 159 158 158 158 154 144 131 124 141 154 155 148 131 97 70 64 63 67 74 75 73 70 67 68 66 63 65 65 63 62 59 54 53 58 53 44 33 25 22 8 346 340 352 350 3 26 21 20 23 21 20 18 14 13 11 9 9
187 194 198 199 202 196 165 157 171 184 187 189 186 180 182 185 183 178 172 168 165 165 163 161 162 161 157 157 162 162 161 162 154 142 134 136 149 155 152 141 117 90 75 74 76 77 84 81 79 76 71 69 67 63 63 63 64 64 63 61 56 54 49 39 31 24 20 8 344 340 354 352 7 31 19 19 27 21 19 18 13 11 8 8 9